Miscellaneous Local Product
Issued by NWS North Platte, NE

Home | Current Version | Previous Version | Text Only | Print | Product List | Glossary On
Versions: 1 2 3 4 5 6 7 8 9 10 11 12 13 14 15 16 17 18 19 20 21 22 23 24 25 26 27 28 29 30 31 32 33 34 35 36 37 38 39 40 41 42 43 44 45 46 47 48 49 50
080
AXUS43 KLBF 240010
MISLBF


WESTERN AND NORTH CENTRAL NEBRASKA HOURLY WEATHER ROUNDUP
NATIONAL WEATHER SERVICE NORTH PLATTE NE
700 PM CDT WED AUG 23 2017

NOTE: "FAIR" INDICATES FEW OR NO CLOUDS BELOW 12,000 FEET WITH NO
SIGNIFICANT WEATHER AND/OR OBSTRUCTIONS TO VISIBILITY.

NOTE: STATIONS NOT REPORTING VARIABLES SUCH AS SKY/WEATHER OR
PRESSURE ARE PROVIDED BY RAWS AND APRS NETWORKS AND ARE NOT UNDER
NATIONAL WEATHER SERVICE QUALITY CONTROL.

...OBSERVATIONS IN AND NEAR THE EASTERN PANHANDLE OF NEBRASKA...

CITY           SKY/WX    TMP DP  RH WIND       PRES   REMARKS
PINE RIDGE     MOSUNNY   91  54  28 E8        29.94S
GORDON         FAIR      86  56  35 CALM      29.96S
CHADRON        CLOUDY    88  53  30 S8        29.92F
ALLIANCE       SUNNY     84  58  40 SE7       29.99S
SIDNEY         CLOUDY    85  58  39 SE13      30.03S
$$

...OBSERVATIONS IN NORTHERN NEBRASKA AND FAR SOUTHERN SOUTH DAKOTA...

CITY           SKY/WX    TMP DP  RH WIND       PRES   REMARKS
WINNER         FAIR      86  65  49 S10       29.89F
VALENTINE      SUNNY     89  58  34 S13       29.91F
THEDFORD       SUNNY     84  60  43 S15G21    29.98S
AINSWORTH      SUNNY     82  62  50 S13       29.96F
O`NEILL        SUNNY     78  58  50 S13G20    29.98S
ORD            SUNNY     78  54  43 S13       29.99F
BROKEN BOW     SUNNY     81  53  37 S13       30.00F
VALENTINE NWR    N/A     85  60  43 S13G20      N/A
HALSEY           N/A     83  55  38 S9G20       N/A
BUTTE            N/A     80  62  53 S10G17      N/A
CHAMBERS         N/A     78  55  45 CALM        N/A
EWING            N/A     77  60  56 S8G15       N/A
$$

...OBSERVATIONS IN SOUTHWEST NEBRASKA AND FAR NORTHEAST COLORADO...

CITY           SKY/WX    TMP DP  RH WIND       PRES   REMARKS
WRAY           FAIR      88  54  31 S14G21    30.00F
HOLYOKE        FAIR      81  63  54 SE9       30.01S
IMPERIAL       SUNNY     86  58  38 S14G21    29.99F
OGALLALA       SUNNY     85  60  42 S7        29.99S
NORTH PLATTE   SUNNY     81  58  45 S15       29.99S
MCCOOK         SUNNY     83  53  35 S10       30.00F
LEXINGTON      SUNNY     80  53  40 S10       30.01F
STAPLETON        N/A     83  60  45 CALM        N/A
GOTHENBURG       N/A     82  49  31 S9          N/A
CALLAWAY         N/A     81  59  47 S15         N/A
$$

...OBSERVATIONS IN CENTRAL LINCOLN COUNTY AREA...

CITY           SKY/WX    TMP DP  RH WIND       PRES   REMARKS
N.P. AIRPORT   SUNNY     81  58  45 S15       29.99S
N.P. DOWNTOWN    N/A     84  61  45 SW3         N/A
N.P. SOUTHEAST   N/A     82  61  49 S7G14       N/A
N.P. HILLCREST   N/A     81  60  48 S9G16       N/A
$$

...SOME OBSERVATIONS FROM AROUND THE REGION...

CITY           SKY/WX    TMP DP  RH WIND       PRES   REMARKS
DENVER         CLOUDY    81  43  26 NW16      30.12R
LIMON          CLOUDY    77  54  44 S13       30.13R
ASPEN          CLOUDY    73  37  27 W5        30.28F
LARAMIE        CLOUDY    62  49  62 MISG      30.28F
CASPER         CLOUDY    86  26  11 W8        30.05F
CHEYENNE       CLOUDY    76  43  30 SW7       30.18S
SCOTTSBLUFF    MOSUNNY   84  60  44 SE6       30.00R
GRAND ISLAND   SUNNY     78  58  49 SE12      30.02F
OMAHA          SUNNY     78  56  46 S10       30.03F
SIOUX FALLS    CLOUDY    72  64  76 E9        30.00S
PIERRE         SUNNY     85  61  44 NE10      29.87F
RAPID CITY     SUNNY     81  52  36 NE6       29.95S
BISMARCK       SUNNY     81  56  42 S9        29.94F
KANSAS CITY    SUNNY     76  56  49 N5        30.06F
HILL CITY      SUNNY     85  45  24 SE14      30.01F
WICHITA        MOSUNNY   81  52  36 SE10      30.02F
DODGE CITY     SUNNY     84  49  29 S12       30.04F
OKLAHOMA CITY  MOSUNNY   82  64  54 NE7       29.99F
DALLAS         MOSUNNY   87  69  54 NE8       29.90S HX  91
AMARILLO       SUNNY     79  62  56 SE12      30.09F
$$




USA.gov is the U.S. government's official web portal to all federal, state and local government web resources and services.